Location: Innsbruck
(47.2657°N, 11.3914°E)
Time: 13:10:34
(UTC+02:00)

Envisat - Pass Details

Date: 02 October 2021
Orbit: 764 x 766 km, 98.2° (Epoch: 20 October)

Event Time Altitude Azimuth Distance (km) Brightness Sun altitude
Rises 04:56:59 0° 31° (NNE) 3,241 7.1 -23.7°
Reaches altitude 10° 05:00:39 10° 59° (ENE) 2,308 6.6 -23.2°
Maximum altitude 05:03:00 13° 87° (E) 2,091 6.2 -22.8°
Drops below altitude 10° 05:05:21 10° 115° (ESE) 2,300 6.1 -22.4°
Sets 05:08:58 0° 142° (SE) 3,219 6.5 -21.8°
